User: anonymous   Login
Location: Unspecified
(0.0000°N, 0.0000°E)
Time: 23:08:49
(UTC+02:00)
Language:

Iridium 4 Rocket - Orbit

View from above orbital plane
View from above orbital plane
View from above satellite
View from above satellite

Ground track
Ground track

The orbit data is extracted from the following two-line orbital elements,

1 24797U 97020F   16150.22425819  .00000156  00000-0  27568-4 0  9997
2 24797  86.8947 134.0078 0226578 156.8619 300.2672 14.43866542  2535
Epoch (UTC): 29 May 2016 05:22:55
Eccentricity: 0.0226578
inclination: 86.8947°
perigee height: 584 km
apogee height: 907 km
right ascension of ascending node: 134.0078°
argument of perigee: 156.8619°
revolutions per day: 14.43866542
mean anomaly at epoch: 300.2672°
orbit number at epoch: 253

The dashed part of the orbit path shows where the satellite is in the earth's shadow,  

DLR